Fredericksburg, TX

6:27 AM CST on November 18, 2017 (GMT -0600)
Fredericksburg

Weather History for KT82 - May, 2014

Change the Weather History Date:

Tuesday, May 6, 2014

  Actual Average (KSAT) Record (KSAT)
Temperature  
Mean Temperature 76 °F -  
Max Temperature 90 °F 84 °F 99 °F (1984)
Min Temperature 61 °F 63 °F 47 °F (1970)
Cooling Degree Days 10    
Growing Degree Days 26 (Base 50)    
Moisture  
Dew Point 59 °F    
Average Humidity 58    
Maximum Humidity 90    
Minimum Humidity 32    
Precipitation  
Precipitation 0.00 in - - ()
Sea Level Pressure  
Sea Level Pressure 29.81 in    
Wind  
Wind Speed 10 mph (South)    
Max Wind Speed 20 mph    
Max Gust Speed 24 mph    
Visibility 10 miles    
Events      
Averages and records for this station are not official NWS values.
T = Trace of Precipitation, MM = Missing Value Source: NWS Daily Summary

Daily Weather History Graph

Daily Weather History Graph

Search for Another Location

Airport or City:

Trip Planner

Search our weather history database for the weather conditions in past years. The results will help you decide how hot, cold, wet, or windy it might be!

Date:

Astronomy

May. 06, 2014 Rise Set
Actual Time 6:48 AM CDT 8:16 PM CDT
Civil Twilight 6:22 AM CDT 8:42 PM CDT
Nautical Twilight 5:51 AM CDT 9:13 PM CDT
Astronomical Twilight 5:19 AM CDT 9:45 PM CDT
Moon 1:00 PM CDT (5/6) 1:40 AM CDT (5/6)
Length of Visible Light 14h 20m
Length of Day
13h 28m
Waxing Crescent, 46% of the Moon is Illuminated
May 6
Waxing Crescent
May 6
First Quarter
May 14
Full
May 21
Last Quarter
May 28
New

Hourly Weather History & Observations

Time (CDT) Temp. Heat Index Dew Point Humidity Pressure Visibility Wind Dir Wind Speed Gust Speed Precip Events Conditions
12:15 AM 70.9 °F - 56.3 °F 60% 29.90 in 10.0 mi South 6.9 mph - N/A   Clear
12:35 AM 69.8 °F - 55.4 °F 60% 29.89 in 10.0 mi South 8.1 mph - N/A   Clear
12:55 AM 68.7 °F - 54.9 °F 61% 29.89 in 10.0 mi South 8.1 mph - N/A   Clear
1:15 AM 68.7 °F - 54.0 °F 59% 29.87 in 10.0 mi South 10.4 mph 18.4 mph N/A   Clear
1:35 AM 67.6 °F - 54.1 °F 62% 29.87 in 10.0 mi South 6.9 mph - N/A   Clear
1:55 AM 67.3 °F - 55.4 °F 66% 29.86 in 10.0 mi South 9.2 mph - N/A   Clear
2:15 AM 66.2 °F - 55.6 °F 69% 29.85 in 10.0 mi South 9.2 mph - N/A   Clear
2:35 AM 65.5 °F - 56.3 °F 72% 29.85 in 10.0 mi South 5.8 mph - N/A   Clear
6:55 AM 61.0 °F - 58.1 °F 90% 29.84 in 10.0 mi SW 6.9 mph - N/A   Clear
7:15 AM 61.0 °F - 58.1 °F 90% 29.84 in 10.0 mi SW 4.6 mph - N/A   Clear
7:35 AM 61.9 °F - 58.5 °F 89% 29.84 in 10.0 mi SSW 5.8 mph - N/A   Clear
7:55 AM 62.8 °F - 58.6 °F 86% 29.85 in 10.0 mi SSW 9.2 mph - N/A   Clear
8:15 AM 64.0 °F - 59.0 °F 84% 29.85 in 10.0 mi SSW 11.5 mph - N/A   Scattered Clouds
9:15 AM 66.7 °F - 60.4 °F 80% 29.86 in 10.0 mi South 12.7 mph - N/A   Overcast
9:35 AM 67.5 °F - 60.6 °F 79% 29.86 in 10.0 mi SSW 15.0 mph 21.9 mph N/A   Overcast
9:55 AM 68.4 °F - 61.0 °F 77% 29.86 in 10.0 mi South 12.7 mph - N/A   Mostly Cloudy
10:15 AM 69.1 °F - 60.8 °F 75% 29.86 in 10.0 mi SSW 12.7 mph - N/A   Scattered Clouds
10:35 AM 71.6 °F - 61.2 °F 70% 29.85 in 10.0 mi SSW 13.8 mph - N/A   Scattered Clouds
10:55 AM 72.5 °F - 61.2 °F 67% 29.85 in 10.0 mi South 12.7 mph 18.4 mph N/A   Clear
11:15 AM 74.7 °F - 61.3 °F 63% 29.85 in 10.0 mi SSW 11.5 mph 17.3 mph N/A   Clear
11:35 AM 77.0 °F - 61.3 °F 58% 29.85 in 10.0 mi South 12.7 mph 21.9 mph N/A   Clear
11:55 AM 78.6 °F - 61.0 °F 55% 29.85 in 10.0 mi South 13.8 mph 20.7 mph N/A   Clear
12:15 PM 79.3 °F - 60.8 °F 53% 29.83 in 10.0 mi South 11.5 mph 17.3 mph N/A   Clear
12:35 PM 82.4 °F 82.6 °F 59.9 °F 46% 29.83 in 10.0 mi SSW 13.8 mph 19.6 mph N/A   Clear
12:55 PM 83.3 °F 83.2 °F 59.0 °F 44% 29.82 in 10.0 mi South 12.7 mph 17.3 mph N/A   Clear
1:15 PM 86.0 °F 85.0 °F 57.4 °F 38% 29.81 in 10.0 mi South 13.8 mph 19.6 mph N/A   Clear
1:35 PM 87.4 °F 85.9 °F 55.8 °F 34% 29.80 in 10.0 mi SSW 16.1 mph 24.2 mph N/A   Clear
1:55 PM 88.3 °F 86.9 °F 56.3 °F 34% 29.79 in 10.0 mi South 12.7 mph 19.6 mph N/A   Clear
2:15 PM 88.2 °F 86.3 °F 55.2 °F 32% 29.78 in 10.0 mi South 15.0 mph - N/A   Clear
2:35 PM 90.0 °F 88.6 °F 57.2 °F 33% 29.78 in 10.0 mi SSE 9.2 mph 19.6 mph N/A   Clear
3:15 PM 88.2 °F 87.1 °F 58.1 °F 36% 29.76 in 10.0 mi SSE 12.7 mph 19.6 mph N/A   Clear
3:35 PM 88.5 °F 87.5 °F 58.3 °F 36% 29.76 in 10.0 mi South 15.0 mph 21.9 mph N/A   Clear
3:55 PM 88.3 °F 87.6 °F 59.2 °F 37% 29.76 in 10.0 mi SSE 11.5 mph 23.0 mph N/A   Clear
4:15 PM 88.5 °F 87.8 °F 58.8 °F 37% 29.75 in 10.0 mi South 12.7 mph 21.9 mph N/A   Clear
4:35 PM 88.5 °F 87.8 °F 59.0 °F 37% 29.75 in 10.0 mi SSE 17.3 mph 23.0 mph N/A   Clear
5:15 PM 87.6 °F 86.9 °F 59.4 °F 38% 29.74 in 10.0 mi South 19.6 mph 24.2 mph N/A   Clear
5:35 PM 88.0 °F 87.1 °F 59.0 °F 37% 29.75 in 10.0 mi South 13.8 mph 23.0 mph N/A   Clear
5:55 PM 87.1 °F 85.9 °F 57.0 °F 36% 29.74 in 10.0 mi South 17.3 mph 21.9 mph N/A   Clear
6:15 PM 85.3 °F 84.6 °F 58.1 °F 40% 29.74 in 10.0 mi South 13.8 mph 18.4 mph N/A   Clear
6:35 PM 84.6 °F 84.0 °F 58.5 °F 41% 29.74 in 10.0 mi South 15.0 mph 20.7 mph N/A   Clear
6:55 PM 84.2 °F 84.0 °F 59.4 °F 43% 29.74 in 10.0 mi SSE 8.1 mph 16.1 mph N/A   Clear
7:15 PM 83.8 °F 84.0 °F 60.3 °F 45% 29.75 in 10.0 mi SSE 8.1 mph 18.4 mph N/A   Clear
7:35 PM 82.4 °F 82.9 °F 60.8 °F 48% 29.75 in 10.0 mi SSE 11.5 mph 17.3 mph N/A   Clear
7:55 PM 81.0 °F 81.8 °F 61.3 °F 51% 29.76 in 10.0 mi SE 10.4 mph 18.4 mph N/A   Clear
8:15 PM 79.3 °F - 61.3 °F 54% 29.77 in 10.0 mi SSE 10.4 mph 18.4 mph N/A   Clear
8:35 PM 78.4 °F - 61.2 °F 55% 29.78 in 10.0 mi SSE 11.5 mph 17.3 mph N/A   Clear
8:55 PM 77.2 °F - 61.9 °F 59% 29.79 in 10.0 mi SSE 10.4 mph 19.6 mph N/A   Clear
9:15 PM 76.1 °F - 62.1 °F 62% 29.79 in 10.0 mi SSE 12.7 mph 18.4 mph N/A   Clear
9:35 PM 74.8 °F - 62.6 °F 66% 29.79 in 10.0 mi SSE 11.5 mph 17.3 mph N/A   Clear
9:55 PM 74.3 °F - 62.6 °F 67% 29.80 in 10.0 mi SSE 8.1 mph - N/A   Clear
10:15 PM 73.4 °F - 62.8 °F 69% 29.82 in 10.0 mi South 10.4 mph 16.1 mph N/A   Clear
10:35 PM 72.7 °F - 62.8 °F 71% 29.82 in 10.0 mi SSE 8.1 mph - N/A   Clear
10:55 PM 71.4 °F - 63.0 °F 75% 29.83 in 10.0 mi SSE 10.4 mph 17.3 mph N/A   Scattered Clouds
11:15 PM 71.1 °F - 63.3 °F 76% 29.83 in 10.0 mi SSE 11.5 mph - N/A   Scattered Clouds
11:35 PM 71.1 °F - 63.5 °F 77% 29.84 in 10.0 mi South 12.7 mph 17.3 mph N/A   Scattered Clouds
11:55 PM 71.1 °F - 63.7 °F 77% 29.84 in 10.0 mi South 11.5 mph 18.4 mph N/A   Overcast